Regional Weather Roundup
Issued by NWS

Home | Current Version | Previous Version | Text Only | Print | Product List | Glossary Off
Versions: 1 2 3 4 5 6 7 8 9 10 11 12 13 14 15 16 17 18 19 20 21 22 23 24 25 26 27 28 29 30 31 32 33 34 35 36 37 38 39 40 41 42 43 44 45 46 47 48 49 50

000
ASUS43 KIND 031409
RWRIN

WEATHER ROUNDUP FOR INDIANA
NATIONAL WEATHER SERVICE INDIANAPOLIS IN
900 AM EST TUE MAR 03 2015

NOTE: "FAIR" INDICATES FEW OR NO CLOUDS BELOW 12,000 FEET WITH NO
SIGNIFICANT WEATHER AND/OR OBSTRUCTIONS TO VISIBILITY.

* - STATION DOES NOT REPORT WEATHER SUCH AS PRECIPITATION OR FOG.

+ - STATION NOT QUALITY CONTROLLED BY THE NATIONAL WEATHER SERVICE.
    USE DATA WITH CAUTION...ESPECIALLY DEWPOINT AND RELATIVE
    HUMIDITY OBSERVATIONS.

INZ001>003-010>013-019-020-031500-
NORTHWEST INDIANA

CITY           SKY/WX    TMP DP  RH WIND       PRES   REMARKS
GARY /AIRPORT/ CLOUDY    28  23  80 SE12      29.89F HAZE    WCI  18
KNOX *+          N/A     28  19  69 SE15G22   29.93F WCI  17
LA PORTE +     MIX PCPN  28  25  86 S13G18    29.91F WCI  18
MICHIGAN CITY+ CLOUDY    28  21  74 SE8       29.90F HAZE    WCI  20
MONTICELLO +   MIX PCPN  27  25  91 SE7       29.94F WCI  19
RENSSELAER +   MIX PCPN  30  30 100 SE14      29.91F WCI  20
VALPARAISO     CLOUDY    26  24  92 SE13      29.90F FOG     WCI  15

$$

LMZ046-743>745-031500-
SOUTHERN LAKE MICHIGAN

STATION/POSITION TIME  TEMP WIND        PRES
                       AIR  DIR/SP/G
                 (UTC) (F)  (DEG/KT/KT) (MB)
MICHIGAN CITY    1400   26  130/ 14/ 19   N/A

$$

INZ004-005-014>016-021>024-031500-
NORTH CENTRAL INDIANA

CITY           SKY/WX    TMP DP  RH WIND       PRES   REMARKS
ELKHART        CLOUDY    25  18  74 SE10      29.97F WCI  15
GOSHEN         CLOUDY    25  20  81 SE14      29.97F HAZE    WCI  13
LOGANSPORT +   MIX PCPN  28  27  93 SE16      29.96F WCI  17
PERU/GRISSOM   FRZ RAIN  27  22  82 SE14      29.96S WCI  16
ROCHESTER +    MIX PCPN  30  27  86 SE12      29.96F WCI  21
SOUTH BEND     FRZ RAIN  27  22  81 SE16      29.94F WCI  15
WARSAW +       CLOUDY    27  21  80 SE10      29.99F WCI  17

$$

INZ006>009-017-018-025>027-031500-
NORTHEAST INDIANA

CITY           SKY/WX    TMP DP  RH WIND       PRES   REMARKS
ANGOLA *+      CLOUDY    21  18  86 SE10      29.97F WCI  10
FORT WAYNE     FRZ DRZL  26  21  81 SE13      30.01F WCI  15
HUNTINGTON +   CLOUDY    26  19  72 SE8       30.00F WCI  18

$$

INZ028-029-035-036-043>045-051>053-031500-
WEST CENTRAL INDIANA

CITY           SKY/WX    TMP DP  RH WIND       PRES   REMARKS
CRAWFORDSVL +  CLOUDY    27  19  71 SE17      29.94F HAZE    WCI  14
GREENCASTLE +  CLOUDY    30  23  74 SE10      29.97F HAZE    WCI  21
LAFAYETTE      CLOUDY    27  24  89 SE9       29.93F FOG     WCI  18
TERRE HAUTE    LGT SNOW  31  27  85 SE16      29.94F FOG     WCI  20

$$

INZ030>032-037>040-046>048-054>057-064-065-031500-
CENTRAL INDIANA

CITY           SKY/WX    TMP DP  RH WIND       PRES   REMARKS
ANDERSON       LGT RAIN  28  19  69 SE12      30.01  WCI  18
CP ATTERBURY + MIX PCPN  32  23  69 SE7       30.02F WCI  26
FRANKFORT +    PTSUNNY   28  24  87 E16       29.95F WCI  16
GREENWOOD *+   CLOUDY    28  19  69 SE7       30.01F WCI  21
INDIANAPOLIS   FRZ DRZL  29  21  72 SE14      29.97F WCI  18
-EAGLE CREEK   CLOUDY    28  21  75 SE8       29.98F WCI  20
KOKOMO *+      PTSUNNY   27  21  80 S15       29.98F WCI  15
MARION +       CLOUDY    27  22  79 SE13      29.98F WCI  17
MT COMFORT *+  CLOUDY    28  16  59 SE10      29.99F WCI  19
SHELBYVILLE    CLOUDY    31  22  69 SE13      30.01  WCI  21
ZIONSVILLE +   CLOUDY    28  21  75 SE13      29.97F HAZE    WCI  18

$$

INZ033-034-041-042-049-050-058-059-031500-
EAST CENTRAL INDIANA

CITY           SKY/WX    TMP DP  RH WIND       PRES   REMARKS
MUNCIE         CLOUDY    28  20  71 SE10      30.00F HAZE    WCI  19

$$

INZ060-061-067>069-081>083-085>088-031500-
SOUTHWEST INDIANA

CITY           SKY/WX    TMP DP  RH WIND       PRES   REMARKS
EVANSVILLE     LGT RAIN  37  31  78 S7        30.01F
HUNTINGBURG *+ CLOUDY    36  28  75 S10       30.02F
WASHINGTON +   LGT RAIN  34  27  76 S12       29.98F WCI  25

$$

INZ062-063-066-070>080-084-089>092-031500-
SOUTH CENTRAL AND SOUTHEAST INDIANA

CITY           SKY/WX    TMP DP  RH WIND       PRES   REMARKS
BLOOMINGTON    MIX PCPN  30  26  85 SE10      29.97F FOG     WCI  21
NORTH VERNON + CLOUDY    32  21  64 SE8       30.02F WCI  25
SEYMOUR +      CLOUDY    34  23  64 SE9       30.03F WCI  26

$$



USA.gov is the U.S. government's official web portal to all federal, state and local government web resources and services.